When you browse on this site, cookies collect data to enhance your experience and personalize the content and advertising you see.
Visit our Privacy Policy to learn more. By continuing to use the site, you agree to this use of cookies and data.
  • In Hungary
  • List of Countries
  • For 7 days
  • Water Temperature
  • Weather Map
  • News
  • Weather Widgets
  • user-avatar
    Login

    Hourly Weather Laghouat

    Today, 13 November, Wednesday

    Time Temperature Precipitation Wind Pressure Humidity
    00:00 +7°C° 0 mm 5 mps 690 mmHg 61%
    01:00 +7°C° 0 mm 4 mps 690 mmHg 65%
    02:00 +6°C° 0 mm 4 mps 689 mmHg 68%
    03:00 +6°C° 0 mm 4 mps 689 mmHg 71%
    04:00 +6°C° 0 mm 4 mps 689 mmHg 75%
    05:00 +6°C° 0 mm 4 mps 689 mmHg 78%
    06:00 +6°C° 0 mm 4 mps 690 mmHg 82%
    07:00 +7°C° 0 mm 4 mps 690 mmHg 74%
    08:00 +9°C° 0 mm 5 mps 690 mmHg 66%
    09:00 +11°C° 0 mm 6 mps 691 mmHg 58%
    10:00 +12°C° 0 mm 7 mps 691 mmHg 54%
    11:00 +14°C° 0 mm 7 mps 691 mmHg 50%
    12:00 +15°C° 0 mm 7 mps 691 mmHg 46%
    13:00 +15°C° 0 mm 8 mps 690 mmHg 46%
    14:00 +15°C° 0 mm 8 mps 690 mmHg 47%
    15:00 +16°C° 0 mm 8 mps 690 mmHg 48%
    16:00 +15°C° 0 mm 8 mps 690 mmHg 52%
    17:00 +14°C° 0 mm 7 mps 690 mmHg 56%
    18:00 +13°C° 0 mm 6 mps 691 mmHg 60%
    19:00 +12°C° 0 mm 5 mps 691 mmHg 62%
    20:00 +12°C° 0 mm 5 mps 691 mmHg 64%
    21:00 +11°C° 0 mm 4 mps 691 mmHg 66%
    22:00 +11°C° 0 mm 4 mps 691 mmHg 69%
    23:00 +11°C° 0 mm 4 mps 691 mmHg 71%

    Tomorrow, 14 November, Thursday

    Time Temperature Precipitation Wind Pressure Humidity
    00:00 +10°C° 0 mm 3 mps 691 mmHg 73%
    01:00 +10°C° 0 mm 3 mps 691 mmHg 75%
    02:00 +10°C° 0 mm 3 mps 691 mmHg 78%
    03:00 +9°C° 0 mm 3 mps 690 mmHg 80%
    04:00 +9°C° 0 mm 3 mps 690 mmHg 80%
    05:00 +9°C° 0 mm 3 mps 690 mmHg 80%
    06:00 +9°C° 0 mm 3 mps 690 mmHg 80%
    07:00 +10°C° 0 mm 4 mps 690 mmHg 73%
    08:00 +11°C° 0 mm 4 mps 690 mmHg 65%
    09:00 +13°C° 0 mm 5 mps 691 mmHg 57%
    10:00 +14°C° 0 mm 6 mps 690 mmHg 49%
    11:00 +16°C° 0 mm 7 mps 690 mmHg 41%
    12:00 +17°C° 0 mm 8 mps 690 mmHg 33%
    13:00 +18°C° 0 mm 9 mps 689 mmHg 32%
    14:00 +18°C° 0 mm 9 mps 688 mmHg 32%
    15:00 +18°C° 0 mm 9 mps 687 mmHg 31%
    16:00 +17°C° 0 mm 8 mps 687 mmHg 35%
    17:00 +16°C° 0 mm 7 mps 687 mmHg 39%
    18:00 +15°C° 0 mm 5 mps 687 mmHg 42%
    19:00 +14°C° 0 mm 5 mps 687 mmHg 43%
    20:00 +14°C° 0 mm 4 mps 687 mmHg 44%
    21:00 +13°C° 0 mm 4 mps 687 mmHg 44%
    22:00 +12°C° 0 mm 4 mps 686 mmHg 50%
    23:00 +11°C° 0 mm 3 mps 686 mmHg 55%

    Day after tomorrow, 15 November, Friday

    Time Temperature Precipitation Wind Pressure Humidity
    00:00 +10°C° 0 mm 3 mps 686 mmHg 60%
    01:00 +10°C° 0 mm 4 mps 686 mmHg 63%
    02:00 +10°C° 0 mm 4 mps 686 mmHg 67%
    03:00 +10°C° 0 mm 4 mps 686 mmHg 70%
    04:00 +8°C° 0 mm 4 mps 686 mmHg 64%
    05:00 +8°C° 0 mm 3 mps 686 mmHg 59%
    06:00 +7°C° 0 mm 2 mps 686 mmHg 54%
    07:00 +8°C° 0 mm 3 mps 687 mmHg 49%
    08:00 +8°C° 0 mm 4 mps 687 mmHg 44%
    09:00 +9°C° 0 mm 5 mps 688 mmHg 39%
    10:00 +11°C° 0 mm 4 mps 688 mmHg 35%
    11:00 +11°C° 0 mm 4 mps 687 mmHg 32%
    12:00 +12°C° 0 mm 3 mps 687 mmHg 28%
    13:00 +12°C° 0 mm 3 mps 687 mmHg 27%
    14:00 +13°C° 0 mm 3 mps 687 mmHg 26%
    15:00 +14°C° 0 mm 2 mps 686 mmHg 25%
    16:00 +13°C° 0 mm 2 mps 686 mmHg 28%
    17:00 +13°C° 0 mm 2 mps 686 mmHg 30%
    18:00 +12°C° 0 mm 2 mps 687 mmHg 33%
    19:00 +12°C° 0 mm 2 mps 687 mmHg 35%
    20:00 +12°C° 0 mm 2 mps 687 mmHg 38%
    21:00 +12°C° 0 mm 2 mps 687 mmHg 40%
    22:00 +9°C° 0.5 mm 2 mps 686 mmHg 51%
    23:00 +8°C° 0.5 mm 2 mps 686 mmHg 62%

    16 November, Saturday

    Time Temperature Precipitation Wind Pressure Humidity
    00:00 +7°C° 0.5 mm 2 mps 686 mmHg 74%
    01:00 +6°C° 1.6 mm 2 mps 686 mmHg 78%
    02:00 +7°C° 1.6 mm 1 mps 685 mmHg 82%
    03:00 +6°C° 1.6 mm 1 mps 685 mmHg 87%
    04:00 +6°C° 1.3 mm 1 mps 685 mmHg 87%
    05:00 +5°C° 1.3 mm 2 mps 685 mmHg 88%
    06:00 +5°C° 1.3 mm 2 mps 685 mmHg 88%
    07:00 +4°C° 0.6 mm 4 mps 686 mmHg 82%
    08:00 +3°C° 0.6 mm 6 mps 686 mmHg 75%
    09:00 +4°C° 0.6 mm 8 mps 686 mmHg 69%
    10:00 +5°C° 0 mm 9 mps 686 mmHg 60%
    11:00 +6°C° 0 mm 10 mps 686 mmHg 51%
    12:00 +7°C° 0 mm 11 mps 686 mmHg 42%
    13:00 +7°C° 0 mm 11 mps 686 mmHg 45%
    14:00 +5°C° 0 mm 12 mps 686 mmHg 48%
    15:00 +5°C° 0 mm 13 mps 686 mmHg 51%
    16:00 +5°C° 0 mm 13 mps 686 mmHg 53%
    17:00 +4°C° 0 mm 12 mps 687 mmHg 56%
    18:00 +4°C° 0 mm 12 mps 688 mmHg 58%
    19:00 +4°C° 0 mm 11 mps 688 mmHg 60%
    20:00 +3°C° 0 mm 11 mps 689 mmHg 62%
    21:00 +3°C° 0 mm 10 mps 690 mmHg 64%
    22:00 +3°C° 0 mm 10 mps 690 mmHg 64%
    23:00 +3°C° 0 mm 10 mps 690 mmHg 64%

    17 November, Sunday

    Time Temperature Precipitation Wind Pressure Humidity
    00:00 +2°C° 0 mm 10 mps 690 mmHg 65%
    01:00 +2°C° 0 mm 10 mps 691 mmHg 66%
    02:00 +2°C° 0 mm 10 mps 691 mmHg 67%
    03:00 +2°C° 0 mm 10 mps 691 mmHg 68%
    04:00 +2°C° 0 mm 9 mps 691 mmHg 68%
    05:00 +2°C° 0 mm 9 mps 691 mmHg 68%
    06:00 +2°C° 0 mm 8 mps 692 mmHg 69%
    07:00 +4°C° 0 mm 8 mps 692 mmHg 63%
    08:00 +5°C° 0 mm 7 mps 693 mmHg 57%
    09:00 +6°C° 0 mm 7 mps 693 mmHg 51%
    10:00 +8°C° 0 mm 7 mps 693 mmHg 47%
    11:00 +9°C° 0 mm 6 mps 693 mmHg 44%
    12:00 +10°C° 0 mm 6 mps 692 mmHg 40%
    13:00 +10°C° 0 mm 5 mps 692 mmHg 38%
    14:00 +12°C° 0 mm 5 mps 692 mmHg 36%
    15:00 +12°C° 0 mm 5 mps 691 mmHg 33%
    16:00 +11°C° 0 mm 4 mps 691 mmHg 36%
    17:00 +11°C° 0 mm 3 mps 692 mmHg 38%
    18:00 +10°C° 0 mm 3 mps 692 mmHg 41%
    19:00 +9°C° 0 mm 3 mps 692 mmHg 41%
    20:00 +9°C° 0 mm 2 mps 692 mmHg 42%
    21:00 +9°C° 0 mm 2 mps 692 mmHg 42%
    22:00 +8°C° 0 mm 3 mps 692 mmHg 42%
    23:00 +8°C° 0 mm 3 mps 692 mmHg 42%

    18 November, Monday

    Time Temperature Precipitation Wind Pressure Humidity
    00:00 +8°C° 0 mm 3 mps 692 mmHg 42%
    01:00 +8°C° 0 mm 3 mps 691 mmHg 42%
    02:00 +8°C° 0 mm 3 mps 691 mmHg 42%
    03:00 +6°C° 0 mm 4 mps 691 mmHg 42%
    04:00 +6°C° 0 mm 4 mps 691 mmHg 42%
    05:00 +6°C° 0 mm 4 mps 691 mmHg 42%
    06:00 +6°C° 0 mm 4 mps 691 mmHg 42%
    07:00 +8°C° 0 mm 5 mps 691 mmHg 45%
    08:00 +9°C° 0 mm 6 mps 692 mmHg 48%
    09:00 +11°C° 0 mm 7 mps 692 mmHg 51%
    10:00 +11°C° 0 mm 8 mps 692 mmHg 46%
    11:00 +12°C° 0 mm 8 mps 692 mmHg 41%
    12:00 +13°C° 0 mm 9 mps 692 mmHg 36%
    13:00 +13°C° 0 mm 9 mps 692 mmHg 37%
    14:00 +12°C° 0 mm 9 mps 692 mmHg 37%
    15:00 +12°C° 0 mm 9 mps 691 mmHg 38%
    16:00 +11°C° 0 mm 8 mps 692 mmHg 42%
    17:00 +10°C° 0 mm 7 mps 692 mmHg 46%
    18:00 +9°C° 0 mm 6 mps 692 mmHg 50%
    19:00 +8°C° 0 mm 5 mps 693 mmHg 55%
    20:00 +8°C° 0 mm 5 mps 693 mmHg 59%
    21:00 +7°C° 0 mm 5 mps 693 mmHg 63%
    22:00 +7°C° 0 mm 4 mps 693 mmHg 66%
    23:00 +6°C° 0 mm 4 mps 693 mmHg 68%
    Show more